User: anonymous   Login
Location: Unspecified
(0.0000°N, 0.0000°E)
Time: 16:23:20
(UTC+00:00)
Language:

SWISSCUBE - Orbit

View from above orbital plane
View from above orbital plane
View from above satellite
View from above satellite

Ground track
Ground track

The orbit data is extracted from the following two-line orbital elements,

1 35932U 09051B   14324.89163259  .00002123  00000-0  50556-3 0  4654
2 35932 098.3925 077.5861 0006998 256.8247 103.2169 14.54810887273673
Epoch (UTC): 20 November 2014 21:23:57
Eccentricity: 0.0006998
inclination: 98.3925°
perigee height: 705 km
apogee height: 715 km
right ascension of ascending node: 77.5861°
argument of perigee: 256.8247°
revolutions per day: 14.54810887
mean anomaly at epoch: 103.2169°
orbit number at epoch: 27367

The dashed part of the orbit path shows where the satellite is in the earth's shadow,  

DLR